Location: Calw
(48.7168°N, 8.7376°E)
Time: 16:44:17
(UTC+00:00)

Daily predictions for brighter satellites

Satellite Brightness Start Highest point End
(mag) Time Altitude Azimuth Time Altitude Azimuth Time Altitude Azimuth
Cosmos 1953 2.5 18:40:43 10° SSE 18:44:23 46° E 18:48:04 10° NNE
SJ 16-02 1.7 18:40:32 10° N 18:44:44 45° ENE 18:48:52 10° SE
SPOT 1/Viking Rocket 3.6 18:39:38 10° SSE 18:44:50 76° ENE 18:50:04 10° NNW
CZ-4B R/B 3.3 18:39:34 10° SSE 18:45:11 70° ENE 18:50:46 10° N
NOSS 2-3 (C) 3.3 18:42:10 10° SSW 18:45:45 57° SE 18:49:47 10° NE
Cosmos 2366 rocket 4.2 18:41:20 10° N 18:47:37 57° ENE 18:53:51 10° SSE
Cosmos 2082 Rocket 4.5 18:43:05 10° NW 18:47:44 26° WSW 18:52:21 10° SSW
NOSS 2-3 (D) 3.2 18:47:18 10° SSW 18:50:54 59° SE 18:54:57 10° NE
ATLAS 3B R/B 4.0 18:47:29 10° SE 18:51:57 18° ESE 18:56:36 10° ENE
Cosmos 2098 Rocket 4.3 18:48:24 10° SE 18:52:39 26° E 18:56:19 10° NE
Cosmos 2218 Rocket 4.2 18:48:10 10° N 18:54:33 61° ENE 19:00:49 10° SSE
Terra 3.8 18:56:48 10° E 18:59:07 14° NE 19:01:28 10° NNE
USA 281 3.4 18:53:28 10° SE 18:59:55 62° ENE 19:06:24 10° NNW
USA 129 3.0 18:58:05 10° NE 19:00:30 27° E 19:02:33 10° SSE
NOSS 2-2 (E) 2.8 18:57:47 10° SW 19:01:00 83° NW 19:04:12 10° NE
Okean-O 3.4 18:59:06 10° SE 19:03:04 34° ENE 19:07:05 10° N
Cosmos 1821 Rocket 4.4 18:57:23 10° N 19:03:17 43° ENE 19:09:04 10° SE
Cosmos 1959 Rocket 4.5 18:59:26 10° N 19:05:33 69° ENE 19:11:41 10° SSE
Cosmos 1825 2.5 19:10:01 10° NNW 19:13:27 59° W 19:16:50 10° S
Cosmos 2344 3.8 19:06:22 10° SW 19:13:49 71° NW 19:21:22 10° NE
PSLV R/B 3.6 19:11:04 10° SSE 19:14:44 87° ENE 19:18:30 10° NNW
NOSS 2-2 (D) 2.7 19:11:56 10° SW 19:15:11 88° NW 19:18:22 10° NE
NOSS 2-3 (E) 3.5 19:13:49 10° SW 19:17:29 72° NW 19:21:42 10° NE
Cosmos 1025 Rocket 3.3 19:16:53 10° NNW 19:21:14 71° W 19:25:34 10° S
Meteor 1-21 Rocket 4.4 19:15:43 10° NNW 19:21:40 85° W 19:27:36 10° S
Cosmos 1656 Rocket 4.0 19:18:44 10° SW 19:24:15 71° WNW 19:29:45 10° NNE
Okean O Rocket 1.7 19:21:33 10° S 19:25:53 78° WSW 19:30:16 10° NNW
Cosmos 1302 Rocket 4.0 19:23:44 10° SSW 19:29:00 85° ESE 19:34:17 10° NNE
Resurs 01 Rocket 1.9 19:26:41 10° S 19:31:04 69° WSW 19:35:30 10° NNW
Cosmos 1975 Rocket 3.0 19:27:55 10° N 19:32:17 83° E 19:36:36 10° S
USA 267 3.9 19:27:45 10° NE 19:34:09 58° NNW 19:40:33 10° W
CARTOSAT-1 3.8 19:31:41 10° S 19:35:55 68° WSW 19:40:12 10° NNW
Landsat 4 4.4 19:37:44 24° ESE 19:39:07 33° ENE 19:42:19 10° N
Cosmos 2227 Rocket 4.2 19:36:32 10° N 19:39:57 16° NE 19:43:20 10° ENE
Meteor 1-11 4.2 19:36:24 10° N 19:42:04 79° ENE 19:47:19 12° SSE
ATLAS 5 CENTAUR R/B 1.8 19:40:09 10° S 19:43:07 28° ESE 19:46:19 10° ENE
CZ-4C R/B 4.1 19:38:20 10° NW 19:43:47 28° NNE 19:50:17 10° E
Cosmos 1346 Rocket 3.7 19:40:52 10° SSW 19:44:35 49° WNW 19:48:19 10° N
Cosmos 1934 Rocket 4.4 19:44:05 10° N 19:49:52 42° ENE 19:53:19 23° SE
Cosmos 1782 Rocket 4.2 19:45:37 10° SSW 19:49:54 57° WNW 19:54:17 10° N
BREEZE-M R/B 1.8 19:48:36 10° W 19:51:08 68° N 19:51:51 40° ENE
SPOT 5 3.2 19:48:09 20° SSE 19:51:51 64° ENE 19:57:06 10° N
NOSS 3-1 (A) 3.7 19:51:41 10° S 19:56:01 32° ESE 20:01:01 10° NE
Cosmos 1536 Rocket 4.0 19:53:49 10° N 19:58:03 44° ENE 19:59:38 31° SE
ERS-1 Rocket 3.3 19:56:33 26° SE 19:59:00 49° ENE 20:03:50 10° N
Cosmos 2181 Rocket 4.4 19:53:02 10° SSW 19:59:07 64° WNW 20:05:23 10° N
MOS 1 4.3 19:54:38 15° SSE 19:59:26 87° WSW 20:05:11 10° NNW
Cosmos 2151 Rocket 4.0 19:59:50 30° SE 20:01:22 42° E 20:05:32 10° NNE
SL-27 R/B 1.8 19:59:23 10° NNW 20:02:19 88° W 20:02:50 57° SSE
CZ-4 R/B 4.2 20:01:48 10° WSW 20:03:50 14° W 20:05:52 10° WNW
COSMOS 2455 4.1 19:59:39 10° NNW 20:04:55 30° NE 20:08:24 18° E
SL-4 R/B 2.2 20:04:24 10° W 20:07:59 55° N 20:09:47 25° ENE
Cosmos 2297 Rocket 3.2 20:04:51 10° NNW 20:09:56 33° NE 20:12:23 23° E
CENTAUR R/B 4.4 20:04:54 10° NW 20:11:28 31° NNE 20:19:01 10° ENE
Cosmos 2369 Rocket 3.6 20:09:44 10° WSW 20:15:05 41° NW 20:20:26 10° NNE
IRS-1C Rocket 4.1 20:12:54 23° S 20:16:16 81° WSW 20:21:36 10° NNW
Cosmos 1354 Rocket 4.4 20:12:49 10° NNW 20:18:02 51° ENE 20:19:53 35° ESE
NOSS 3-1 (C) 3.0 20:13:09 10° SW 20:18:07 88° SE 20:24:10 10° NE
Cosmos 1503 Rocket 4.1 20:13:05 10° NNW 20:18:27 65° ENE 20:20:33 37° SE
Cosmos 546 4.4 20:14:54 10° WSW 20:18:39 83° SSE 20:19:44 45° ENE
Cosmos 371 Rocket 3.3 20:17:59 10° NNW 20:22:45 62° ENE 20:24:07 43° SE
SJ 16-02 3.6 20:19:32 10° NW 20:22:47 21° W 20:26:01 10° SSW
MetOp-B 4.3 20:19:37 23° S 20:23:03 71° WSW 20:28:26 10° NNW
Cosmos 1992 Rocket 4.3 20:18:49 10° SSW 20:24:00 67° WNW 20:29:14 10° NNE
Okean 2 Rocket 3.0 20:23:04 38° SSE 20:24:40 68° E 20:29:10 10° NNE
Spot 2 Rocket 3.5 20:26:59 41° SE 20:28:43 69° ENE 20:33:45 10° N
Cosmos 1241 Rocket 4.4 20:26:57 10° NW 20:33:15 84° SW 20:35:55 37° SSE
Terra 1.7 20:34:37 47° SSE 20:36:00 85° ENE 20:40:45 10° NNW
Genesis I 3.8 20:34:07 10° NNW 20:37:35 40° NE 20:37:37 40° NE
Iridium 2 3.8 20:34:48 10° N 20:37:09 51° NNW 20:37:09 51° NNW
Okean-O 4.3 20:36:10 12° SSW 20:39:31 28° W 20:43:21 10° NW
Sich 1 Rocket 3.5 20:38:15 40° SSW 20:39:49 84° W 20:44:17 10° N
Cosmos 304 Rocket 3.7 20:35:12 10° NNW 20:39:59 72° ENE 20:40:52 56° SE
ATLAS 3B R/B 2.7 20:34:23 10° SSW 20:41:27 76° SE 20:49:03 10° NE
Nadezhda 3 Rocket 4.3 20:37:17 10° SSW 20:43:21 63° WNW 20:49:30 10° N
Cosmos 1656 4.0 20:44:12 42° E 20:44:12 42° E 20:49:07 10° NE
Cosmos 2263 Rocket 4.2 20:40:57 10° N 20:44:41 18° NE 20:47:19 13° ENE
MOS 1 Rocket 3.3 20:45:24 51° ENE 20:45:30 52° ENE 20:49:41 10° N
Ariane Rocket 2.9 20:46:40 47° S 20:48:09 82° WSW 20:53:14 10° NNW
Cosmos 1437 Rocket 4.0 20:46:40 10° N 20:49:28 30° NE 20:49:28 30° NE
Cosmos 332 Rocket 4.2 20:48:42 10° NNW 20:53:24 47° ENE 20:53:48 46° ENE
SPOT 3 Rocket 3.5 20:52:04 50° S 20:53:29 83° WSW 20:58:44 10° NNW
Cosmos 1605 Rocket 4.0 20:48:26 10° N 20:54:53 76° E 20:56:50 47° SSE
Cosmos 1932 4.5 20:52:47 10° NW 20:59:00 70° WSW 21:00:44 48° S
Okean 1 Rocket 3.0 21:01:22 72° SW 21:01:48 82° W 21:06:17 10° N
Cosmos 1455 Rocket 3.9 21:07:54 38° NE 21:07:54 38° NE 21:11:01 10° NNE
Cosmos 990 Rocket 4.1 21:05:40 10° NNW 21:10:48 57° ENE 21:11:05 56° ENE
Iridium 4 Rocket 4.1 21:10:59 34° SSW 21:13:11 59° W 21:18:51 10° N
MetOp-A 3.8 21:17:03 57° NW 21:17:03 57° NW 21:20:11 10° NNW
USA 267 4.3 21:10:27 10° ENE 21:16:34 43° N 21:22:40 10° WNW
ATLAS CENTAUR R/B 3.1 21:14:12 10° NNW 21:16:59 22° NNE 21:16:59 22° NNE
Spot 1 4.4 21:14:50 10° N 21:19:38 69° WNW 21:20:12 61° WSW
Landsat 5 3.8 21:20:39 10° N 21:24:39 65° NW 21:24:39 65° NW
Cosmos 2227 Rocket 2.3 21:19:37 10° NNW 21:25:16 59° ENE 21:25:45 57° E
Cosmos 1727 Rocket 4.0 21:25:28 59° ESE 21:25:53 60° E 21:32:03 10° NNE
ATLAS 5 CENTAUR R/B 2.8 21:23:45 10° WSW 21:26:56 32° NW 21:30:31 10° NNE
Cosmos 2100 Rocket 4.2 21:21:30 10° N 21:27:45 54° ENE 21:28:21 52° E
Cosmos 1980 Rocket 4.2 21:34:09 15° ENE 21:34:09 15° ENE 21:35:33 10° NE
CZ-4C R/B 3.1 21:26:37 10° NW 21:33:29 65° NE 21:36:02 44° ESE
USA 81 4.1 21:35:33 70° NE 21:35:33 70° NE 21:40:26 10° N
Cosmos 2058 4.0 21:31:54 10° N 21:34:36 39° N 21:34:36 39° N
Cosmos 540 Rocket 4.5 21:40:01 34° NE 21:40:01 34° NE 21:43:10 10° NNE
Cosmos 1697 Rocket 3.5 21:43:51 38° ENE 21:43:51 38° ENE 21:47:41 10° NE
NOSS 3-1 (A) 3.9 21:41:26 10° WSW 21:46:27 53° NW 21:52:34 10° NE
SL-4 R/B 4.2 21:43:35 10° WNW 21:44:39 18° WNW 21:44:39 18° WNW
H-2A R/B 4.1 21:51:13 28° N 21:51:13 28° N 21:53:10 10° N
COSMOS 2455 2.7 21:45:23 10° NW 21:51:26 76° WSW 21:51:32 76° SW
USA 229 DEB 3.3 21:54:04 79° SE 21:54:09 79° SE 22:00:58 10° NE
Cosmos 2297 Rocket 2.6 21:48:45 10° NW 21:54:11 51° WSW 21:54:11 51° WSW
USA 229 3.3 21:54:13 79° SE 21:54:14 79° SE 22:01:04 10° NE
Cosmos 1937 Rocket 4.1 21:50:14 10° NNW 21:55:02 50° NE 21:55:02 50° NE
Cosmos 1898 Rocket 3.8 21:54:50 10° NNW 21:59:29 64° NNE 21:59:29 64° NNE
Meteor 2-3 Rocket 4.0 21:54:41 10° N 21:59:55 60° NE 21:59:55 60° NE
Cosmos 2219 3.4 21:55:49 10° NNW 22:01:16 64° NE 22:01:16 64° NE
ARIANE 5 R/B 3.5 22:04:41 49° NNW 22:04:41 49° NNW 22:08:01 10° NNW
CENTAUR R/B 3.5 21:55:47 10° NW 22:03:45 63° NE 22:06:56 42° ESE
Cosmos 1725 Rocket 4.0 22:06:28 10° N 22:12:27 66° ENE 22:12:27 66° ENE
Terra 4.2 22:13:19 12° W 22:14:15 13° W 22:16:25 10° WNW
Cosmos 2233 Rocket 4.4 22:13:21 10° N 22:19:06 51° ENE 22:19:06 51° ENE
Cosmos 2082 4.0 22:17:54 10° NNW 22:23:03 60° NNE 22:23:03 60° NNE
Cosmos 1459 Rocket 4.0 22:19:44 10° NNW 22:25:35 68° W 22:25:35 68° W
ALOS 2 4.0 22:29:29 35° N 22:29:29 35° N 22:32:11 10° N
Cosmos 2263 Rocket 2.5 22:24:02 10° NNW 22:28:59 63° NNE 22:28:59 63° NNE
ATLAS 3B R/B 4.1 22:26:04 10° W 22:32:52 40° NNW 22:40:04 10° NE
SL-16 R/B 4.2 22:53:27 18° ENE 22:53:27 18° ENE 22:55:33 10° NE
Cosmos 1802 Rocket 4.3 22:45:17 10° NNW 22:51:08 57° W 22:51:08 57° W
ATLAS CENTAUR R/B 4.0 22:51:30 10° NW 22:52:06 14° NW 22:52:06 14° NW
USA 267 3.7 22:55:32 28° E 22:58:57 56° NNE 23:05:21 10° NW
H-2A R/B 4.1 23:03:05 10° NNE 23:04:46 23° NNE 23:04:46 23° NNE
Cosmos 2227 Rocket 3.9 23:04:18 10° NW 23:07:33 23° W 23:07:33 23° W
NOSS 3-2 (A) 3.9 23:06:37 10° NW 23:14:00 88° SW 23:14:40 78° SSE
Cosmos 1980 Rocket 2.7 23:15:53 58° N 23:15:53 58° N 23:20:33 10° NNE
Cosmos 1844 Rocket 3.7 23:11:01 10° NNW 23:16:17 39° NE 23:16:26 39° NE
CZ-4C R/B 3.6 23:15:11 10° NW 23:21:07 41° WSW 23:21:07 41° WSW
Cosmos 841 Rocket 4.4 23:23:47 43° NNW 23:23:47 43° NNW 23:27:47 10° NNE
Cosmos 1697 Rocket 4.0 23:25:31 32° WNW 23:26:24 34° NW 23:31:32 10° NNE
USA 238 DEB 4.5 23:27:34 10° NW 23:34:34 53° NE 23:38:30 28° ESE
USA 238 4.5 23:27:40 10° NW 23:34:40 53° NE 23:38:43 27° ESE
Cosmos 2369 4.2 23:36:22 57° NNW 23:36:22 57° NNW 23:41:13 10° NNE
